Wind_Speed
5 5 5 4 3 3 4 5 5 6 7 7 7 7 8 8 9 11 12 13 13 12 13 13 14 15 15 14 14 13 13 12 11 11 10 10 9 9 9 9 9 10 11 12 13 14 15 16 16
4 5 4 4 4 3 5 6 6 7 8 9 9 9 9 10 11 12 13 14 14 13 14 15 16 17 17 17 17 16 16 15 14 13 12 12 11 10 9 9 9 9 9 10 10 12 13 13 14
3 4 4 4 5 4 5 6 7 8 9 10 10 11 12 12 13 14 15 16 16 15 16 17 18 18 18 19 20 20 20 19 18 16 15 14 13 12 11 10 10 9 8 8 9 9 10 11 12
4 5 5 6 6 6 7 8 9 10 11 12 13 14 15 15 16 16 18 19 19 19 19 20 19 19 20 20 21 22 23 23 22 20 19 18 16 15 14 12 11 10 9 8 8 8 9 9 10
4 4 6 6 6 8 10 11 12 13 14 16 16 17 17 18 19 20 21 22 22 22 22 22 22 22 22 22 22 22 24 25 25 24 23 21 20 18 17 15 14 12 11 10 8 8 8 8 8
5 5 7 7 9 11 12 13 15 16 18 20 20 20 21 21 22 23 24 25 25 25 25 26 25 25 24 24 24 25 25 25 27 28 26 25 23 21 20 18 17 15 14 12 10 9 8 8 8
7 8 10 12 13 13 14 15 18 20 20 22 23 23 24 24 26 27 27 28 28 29 28 29 28 28 27 26 26 26 26 27 27 29 28 27 26 25 24 23 21 19 17 15 13 11 9 8 8
10 10 10 13 16 15 17 19 20 22 23 24 25 26 26 27 28 29 29 30 30 31 32 31 31 31 31 30 30 29 29 27 27 27 28 29 28 26 26 26 25 23 21 18 16 13 12 10 8
13 11 12 14 16 18 20 22 22 24 25 25 26 27 28 29 30 30 31 32 32 32 33 34 34 34 34 34 33 33 33 32 30 28 28 28 29 28 27 27 26 26 24 22 19 17 15 12 10
15 14 15 17 19 21 22 23 25 26 27 26 26 26 28 29 29 30 31 31 32 32 33 33 34 34 34 35 35 35 35 35 34 33 32 30 28 28 28 28 27 25 25 24 23 20 18 16 13
16 17 19 20 21 23 23 24 25 27 28 27 27 27 27 28 28 29 29 30 30 31 32 32 32 33 33 32 33 34 35 35 35 35 34 33 32 31 29 29 28 27 26 25 25 24 21 19 17
19 19 21 21 22 23 24 25 25 26 27 28 28 27 27 27 27 27 27 27 27 27 28 28 29 29 30 29 29 31 32 32 33 34 35 34 34 32 31 31 30 29 27 25 24 25 24 23 21
17 20 20 21 22 23 24 25 26 26 26 27 26 25 25 25 25 25 25 25 26 25 25 25 25 25 25 26 26 27 27 28 29 30 32 33 33 33 33 31 32 30 29 27 25 25 25 24 24
18 19 20 21 21 22 24 25 25 25 25 24 24 23 23 23 22 23 23 23 23 22 22 22 22 22 22 22 22 23 24 25 26 27 28 30 30 31 33 32 32 31 30 30 28 26 26 26 25
21 21 21 21 21 21 23 25 24 23 23 23 22 21 21 20 20 20 20 21 20 21 21 21 21 21 21 20 20 20 21 22 23 24 26 27 28 29 31 31 31 32 32 31 30 28 27 27 27
17 18 18 20 21 20 22 25 24 22 22 21 20 19 17 17 18 18 19 20 20 21 21 21 21 21 20 19 19 19 19 19 20 21 23 25 26 27 28 30 30 31 31 31 30 30 30 28 27
16 16 16 19 20 20 22 23 23 19 20 19 17 16 16 16 17 17 19 20 21 21 21 20 21 20 19 18 18 18 17 17 18 19 20 21 23 25 26 27 29 30 30 31 30 30 30 30 28
16 18 17 20 22 21 22 22 21 18 16 15 14 14 15 15 16 17 19 20 20 20 21 20 20 20 19 18 18 17 16 16 16 17 18 18 20 21 23 25 27 28 29 30 30 31 31 31 31
17 15 15 19 23 21 20 19 18 15 13 11 11 12 13 14 16 17 18 19 20 21 21 20 20 20 19 18 17 16 15 14 14 14 14 15 17 18 20 23 24 26 28 29 30 31 32 32 32
15 13 14 18 20 17 16 14 13 12 10 10 10 11 13 14 16 16 18 19 20 21 21 21 21 20 20 19 17 16 15 13 12 11 11 12 13 15 17 20 22 24 26 28 28 30 31 32 33
15 16 16 17 17 15 12 10 8 8 8 8 10 11 12 14 16 17 18 19 20 20 21 21 21 21 20 19 18 17 15 13 12 11 10 10 11 12 14 16 19 21 23 25 27 28 30 31 32
17 16 13 13 12 11 9 8 6 6 7 8 9 10 12 14 15 17 17 19 20 20 21 21 21 21 21 21 19 18 16 14 13 11 11 10 10 11 12 13 15 18 20 23 25 26 27 29 30
15 12 11 10 8 7 6 6 7 6 7 8 9 10 12 13 15 16 17 18 19 20 21 21 22 22 22 22 21 20 18 17 15 13 12 11 10 10 10 11 12 15 17 20 23 25 26 27 29
12 10 8 6 5 3 4 5 7 6 7 8 9 10 11 12 14 15 16 17 18 19 20 21 22 22 23 22 22 21 20 19 17 16 15 14 12 10 10 10 11 12 15 17 20 22 25 27 28
11 9 5 1 6 6 5 5 5 6 7 7 8 9 10 11 12 13 15 16 17 18 19 20 21 22 22 23 23 22 21 21 19 18 17 16 14 13 11 11 11 11 12 14 17 20 22 25 27
10 9 8 7 3 9 8 7 4 5 5 6 7 8 9 10 11 12 14 15 16 17 19 20 20 21 22 23 23 23 22 22 21 20 19 18 17 15 13 12 11 12 12 14 16 18 20 22 25
11 10 9 8 10 6 7 6 2 4 5 6 7 8 8 9 10 11 13 14 15 17 18 19 20 21 22 22 23 23 23 23 22 22 21 20 19 18 17 15 14 13 13 14 16 17 19 21 23
10 9 8 8 9 7 7 9 4 3 5 5 6 7 8 8 9 10 12 13 15 16 17 19 20 21 22 22 23 23 24 23 23 23 22 22 21 21 20 18 17 16 15 15 15 16 18 21 23
11 10 9 8 7 8 8 6 4 4 4 5 6 7 7 8 9 10 12 13 14 15 17 18 19 20 21 22 22 23 23 23 23 23 23 23 23 22 21 21 19 17 17 16 16 17 18 20 22
10 10 9 9 9 7 6 3 3 3 3 4 5 6 7 8 9 10 11 13 14 15 16 17 18 19 20 21 22 22 22 22 23 23 23 24 23 23 23 22 21 20 19 18 18 18 19 21 23
Wind_Direction
27 25 30 30 14 7 356 6 359 349 341 334 329 330 323 316 312 306 306 307 301 295 288 281 279 275 272 268 265 262 262 260 259 258 256 254 253 252 252 253 253 253 251 252 250 248 247 246 245
13 19 18 5 342 355 348 344 338 335 332 328 323 322 319 315 310 305 303 304 302 298 292 288 284 278 271 265 262 259 260 260 258 257 256 255 254 254 255 255 256 256 255 254 253 251 249 248 246
350 2 359 337 316 332 333 328 322 321 320 317 316 314 313 312 309 305 301 301 301 298 295 294 289 281 274 267 261 256 255 255 255 255 255 255 254 254 255 256 256 257 257 257 256 254 251 249 247
330 348 339 311 308 313 315 315 314 312 308 308 308 308 308 306 304 301 299 298 297 296 293 293 290 285 277 272 267 261 257 253 252 252 253 253 253 254 254 255 256 256 257 257 257 255 254 251 250
304 333 319 303 297 299 303 306 307 308 306 305 304 304 304 304 301 300 298 296 294 293 291 289 287 285 278 273 270 268 264 258 253 250 250 251 251 252 253 253 254 254 254 254 255 255 253 253 249
281 286 290 296 296 298 300 301 303 304 305 304 303 302 302 301 299 298 296 294 292 290 288 287 286 285 280 274 270 268 264 264 257 251 250 249 249 249 249 250 250 250 250 250 250 251 251 251 248
269 273 284 292 292 296 299 300 301 303 305 305 304 303 302 300 298 297 295 294 292 290 289 285 283 282 279 274 272 269 266 264 260 256 253 250 249 249 248 248 248 247 246 245 245 246 246 247 247
272 279 289 279 281 295 299 301 304 304 305 306 306 304 303 301 300 298 296 293 292 290 289 287 284 281 277 275 272 271 269 267 264 262 257 252 249 251 252 249 247 245 243 241 240 241 242 242 242
274 278 275 276 288 294 299 302 305 305 306 307 307 306 305 304 302 300 297 295 293 291 290 288 285 282 279 277 275 272 270 269 267 265 262 257 252 250 253 253 250 245 243 240 237 237 239 240 239
272 273 271 283 296 299 302 305 308 309 310 310 310 309 308 306 305 303 302 300 298 296 293 291 287 284 282 280 276 273 272 270 269 268 267 263 258 255 255 254 252 248 244 240 237 236 236 238 238
270 269 273 285 295 300 304 307 310 312 314 315 315 313 312 310 308 307 306 304 302 300 297 295 292 289 286 283 280 275 273 270 268 268 267 265 263 261 260 259 255 253 250 246 240 235 235 236 236
268 276 281 288 295 301 306 309 311 314 316 317 317 316 315 314 312 312 311 310 309 307 305 303 300 295 290 287 284 280 277 273 270 268 267 266 265 264 264 262 259 254 253 253 248 239 235 234 234
268 275 283 293 300 305 309 311 313 316 317 318 318 318 318 317 317 318 318 317 316 315 313 310 307 302 297 291 286 282 279 275 272 269 267 265 262 261 262 264 260 257 255 254 252 248 239 234 232
278 282 297 302 305 308 310 313 315 318 319 319 319 320 320 321 322 323 324 324 324 323 322 320 316 312 306 299 293 287 282 278 273 270 267 264 262 259 259 260 259 256 255 255 255 254 250 244 237
280 289 298 303 303 307 312 315 318 322 319 321 321 323 324 326 328 330 332 332 332 331 331 329 326 321 315 309 302 295 287 281 276 271 266 263 261 258 257 258 258 257 257 255 255 256 255 249 243
281 291 300 299 301 309 317 318 322 323 321 322 323 326 330 332 334 337 340 340 339 338 336 335 333 329 323 318 312 305 296 287 280 274 268 264 261 259 256 256 256 256 256 254 253 255 256 253 248
287 291 290 292 302 314 319 319 321 323 322 323 327 331 337 338 342 345 345 345 344 343 342 341 339 337 333 328 322 314 306 296 287 279 273 267 263 260 256 253 254 255 255 253 252 253 253 253 252
270 281 290 302 307 318 319 319 320 326 326 327 333 338 342 345 348 349 349 350 350 349 347 346 344 343 340 336 330 324 315 306 298 289 279 271 265 263 259 255 253 253 253 253 251 251 251 252 252
258 277 297 298 300 311 312 314 317 327 332 335 339 343 347 349 350 351 352 352 352 352 351 350 349 349 346 343 340 336 329 320 311 301 289 277 271 267 263 258 255 253 252 251 251 250 249 250 251
266 280 284 284 296 305 307 310 316 327 337 340 344 348 351 353 354 355 355 355 356 356 356 355 355 355 354 352 350 347 344 339 332 323 309 292 282 275 268 262 259 256 254 252 251 250 249 249 250
280 276 275 284 296 301 303 309 320 333 341 344 347 352 356 357 358 358 359 0 2 2 2 3 3 3 3 2 0 359 357 353 348 342 331 317 302 288 278 269 263 260 257 255 253 252 251 250 249
264 272 281 285 289 299 312 319 330 343 346 347 351 356 360 0 1 2 4 6 7 9 10 12 12 12 12 12 11 10 8 5 2 355 344 331 319 306 293 280 270 264 260 258 256 255 254 252 250
265 273 276 282 288 297 312 321 323 344 344 350 356 360 2 4 5 7 9 11 14 16 18 19 20 20 19 19 19 19 17 16 13 8 0 350 336 324 312 297 281 271 266 262 259 257 255 253 252
259 257 260 274 298 313 310 312 309 343 347 353 358 0 3 6 9 12 15 17 19 21 23 23 24 25 24 23 23 23 22 22 20 16 12 7 359 347 333 317 301 287 275 268 265 262 259 257 255
242 237 229 315 356 332 312 301 303 342 347 351 354 359 4 8 12 15 18 20 21 23 24 24 24 24 25 25 25 24 24 23 22 19 16 12 7 359 347 334 319 307 295 282 274 268 264 260 258
229 224 211 169 186 280 290 291 319 334 341 349 355 359 4 9 13 17 20 21 22 23 23 24 24 24 24 24 24 24 23 23 22 20 18 14 10 5 356 346 333 319 307 296 286 277 271 266 262
221 217 216 200 191 214 285 299 317 323 340 347 354 359 5 10 15 17 20 21 21 22 22 23 23 23 22 22 22 22 22 21 20 18 17 14 11 6 0 353 343 332 319 307 296 287 279 273 268
218 216 207 201 187 176 255 288 320 344 344 350 356 2 8 12 16 17 18 18 18 19 20 21 21 21 21 20 20 20 19 19 18 17 16 14 11 8 3 356 347 339 330 321 310 298 289 281 275
211 208 206 208 201 191 204 257 307 333 345 355 4 9 14 17 18 17 16 16 15 15 15 15 15 15 15 15 15 15 14 14 14 13 13 11 10 7 4 0 354 345 336 328 319 309 300 291 284
215 213 208 206 199 201 220 243 280 327 351 3 10 14 16 16 15 13 11 10 8 8 7 7 7 8 7 7 8 8 9 9 8 8 8 8 7 6 3 360 356 350 342 334 326 316 307 299 292
Height
5913 5912 5912 5912 5911 5909 5909 5909 5908 5907 5906 5906 5905 5905 5904 5904 5904 5905 5901 5899 5898 5898 5897 5896 5896 5895 5895 5894 5894 5893 5893 5892 5892 5891 5891 5890 5890 5889 5889 5889 5889 5889 5889 5889 5889 5889 5889 5890 5890
5914 5913 5913 5913 5910 5909 5909 5908 5908 5907 5906 5905 5904 5904 5904 5903 5902 5901 5899 5898 5897 5896 5895 5894 5893 5893 5892 5892 5891 5891 5891 5891 5890 5890 5889 5889 5889 5888 5888 5888 5888 5888 5887 5887 5887 5887 5887 5888 5888
5914 5914 5914 5913 5910 5909 5909 5908 5907 5906 5905 5905 5905 5904 5903 5902 5901 5899 5898 5896 5896 5895 5893 5892 5891 5890 5889 5888 5888 5888 5888 5888 5888 5888 5887 5887 5887 5887 5887 5887 5887 5886 5886 5886 5886 5886 5886 5886 5886
5915 5914 5914 5913 5910 5909 5908 5907 5906 5906 5905 5904 5904 5903 5901 5900 5899 5898 5896 5895 5894 5893 5891 5889 5888 5887 5886 5885 5885 5884 5884 5884 5884 5885 5885 5885 5885 5885 5885 5885 5885 5885 5885 5885 5884 5884 5884 5884 5884
5915 5915 5913 5909 5908 5908 5907 5906 5905 5905 5903 5902 5902 5901 5899 5898 5897 5895 5893 5892 5890 5889 5887 5886 5884 5883 5882 5881 5881 5881 5880 5880 5880 5881 5881 5881 5882 5882 5883 5883 5883 5883 5883 5883 5883 5883 5883 5883 5883
5915 5914 5912 5908 5907 5907 5906 5905 5904 5903 5902 5900 5899 5899 5897 5896 5894 5892 5890 5888 5886 5884 5883 5881 5880 5879 5877 5876 5876 5876 5876 5875 5875 5876 5877 5878 5878 5879 5879 5880 5880 5881 5881 5881 5881 5881 5881 5881 5881
5914 5914 5911 5908 5906 5905 5905 5904 5902 5901 5900 5898 5897 5895 5893 5891 5889 5887 5885 5883 5881 5879 5877 5876 5874 5873 5872 5871 5871 5871 5870 5870 5871 5871 5872 5873 5874 5874 5875 5876 5877 5877 5878 5879 5879 5879 5879 5879 5880
5911 5912 5910 5907 5904 5904 5903 5902 5900 5899 5897 5896 5894 5891 5889 5887 5884 5882 5880 5877 5875 5873 5871 5869 5868 5867 5866 5865 5865 5865 5864 5864 5865 5866 5866 5867 5868 5869 5870 5871 5872 5873 5874 5875 5876 5876 5877 5877 5878
5909 5911 5907 5902 5902 5902 5901 5899 5898 5896 5894 5892 5890 5887 5885 5882 5879 5876 5874 5871 5869 5866 5864 5862 5860 5859 5858 5858 5858 5858 5858 5858 5858 5859 5860 5861 5862 5863 5865 5866 5867 5868 5870 5871 5872 5873 5874 5875 5876
5906 5906 5903 5900 5899 5899 5898 5897 5894 5892 5890 5888 5886 5883 5880 5877 5874 5871 5868 5865 5862 5859 5857 5855 5853 5851 5851 5850 5850 5850 5850 5850 5851 5852 5853 5854 5855 5857 5858 5860 5861 5863 5864 5866 5868 5869 5871 5872 5873
5902 5902 5900 5899 5898 5896 5895 5894 5891 5889 5886 5884 5881 5879 5875 5872 5869 5866 5863 5859 5856 5853 5851 5848 5846 5844 5843 5842 5842 5842 5842 5842 5843 5844 5845 5847 5849 5850 5852 5854 5855 5857 5859 5861 5863 5865 5866 5868 5870
5898 5898 5897 5897 5896 5894 5892 5890 5888 5886 5883 5880 5877 5874 5871 5867 5864 5861 5858 5855 5851 5848 5845 5842 5840 5837 5836 5835 5834 5833 5834 5834 5835 5836 5837 5839 5841 5843 5844 5847 5849 5851 5853 5855 5857 5860 5862 5864 5866
5893 5895 5894 5894 5893 5891 5889 5887 5885 5883 5880 5876 5873 5870 5867 5864 5860 5857 5854 5850 5847 5844 5841 5838 5834 5832 5830 5828 5827 5826 5826 5826 5827 5828 5829 5831 5833 5835 5837 5840 5842 5845 5847 5849 5852 5854 5856 5858 5862
5889 5889 5890 5891 5890 5888 5886 5884 5882 5880 5876 5873 5870 5867 5864 5860 5857 5854 5851 5847 5844 5840 5837 5834 5830 5827 5825 5823 5821 5820 5819 5819 5819 5820 5821 5822 5825 5827 5830 5832 5835 5838 5840 5843 5845 5848 5850 5853 5856
5891 5890 5889 5888 5886 5884 5883 5881 5879 5876 5873 5870 5867 5864 5861 5858 5855 5852 5848 5845 5841 5838 5834 5831 5827 5824 5820 5818 5816 5814 5813 5812 5813 5813 5814 5815 5817 5819 5822 5825 5828 5830 5833 5836 5839 5842 5844 5847 5850
5887 5887 5886 5885 5882 5880 5881 5878 5875 5873 5870 5867 5864 5861 5859 5856 5853 5850 5847 5843 5839 5836 5832 5828 5824 5820 5817 5814 5812 5810 5808 5807 5807 5807 5808 5809 5810 5812 5815 5817 5820 5823 5826 5829 5832 5835 5838 5841 5844
5885 5884 5882 5879 5879 5878 5878 5875 5872 5871 5868 5865 5862 5860 5857 5855 5852 5849 5845 5842 5838 5834 5830 5826 5822 5818 5815 5811 5809 5806 5804 5803 5802 5802 5802 5803 5804 5806 5808 5810 5813 5816 5819 5822 5825 5828 5831 5835 5837
5883 5882 5880 5877 5876 5877 5875 5873 5870 5868 5866 5863 5861 5859 5857 5854 5851 5848 5845 5841 5837 5833 5829 5825 5821 5817 5813 5809 5806 5803 5801 5799 5798 5797 5797 5797 5798 5800 5802 5804 5806 5809 5811 5814 5818 5821 5825 5828 5831
5879 5880 5880 5878 5875 5876 5874 5872 5869 5866 5865 5863 5861 5859 5856 5854 5851 5848 5844 5841 5837 5833 5828 5824 5820 5816 5812 5808 5804 5801 5798 5796 5794 5793 5793 5793 5794 5795 5796 5798 5800 5802 5805 5807 5810 5814 5817 5821 5824
5875 5878 5878 5877 5874 5874 5872 5870 5868 5865 5864 5863 5861 5859 5856 5853 5851 5848 5844 5840 5836 5832 5828 5824 5819 5815 5811 5807 5803 5800 5797 5794 5792 5791 5790 5790 5790 5790 5791 5792 5794 5796 5798 5801 5804 5807 5810 5813 5816
5875 5876 5876 5875 5873 5872 5871 5869 5867 5865 5864 5863 5861 5859 5856 5853 5850 5847 5844 5840 5836 5832 5828 5823 5819 5815 5811 5807 5803 5799 5796 5793 5791 5790 5788 5788 5787 5787 5787 5788 5789 5790 5792 5794 5797 5800 5803 5806 5809
5873 5872 5873 5872 5871 5870 5869 5867 5866 5865 5864 5862 5861 5858 5856 5854 5851 5847 5844 5840 5836 5832 5828 5824 5820 5815 5811 5807 5803 5800 5796 5794 5791 5789 5788 5786 5785 5784 5783 5783 5784 5785 5787 5788 5790 5793 5796 5799 5802
5870 5871 5871 5870 5869 5868 5868 5867 5866 5864 5863 5862 5860 5858 5856 5854 5851 5848 5844 5841 5837 5833 5829 5825 5821 5817 5813 5809 5804 5801 5797 5794 5792 5789 5787 5785 5784 5782 5781 5780 5780 5781 5782 5783 5785 5787 5789 5792 5794
5868 5869 5869 5868 5868 5868 5867 5867 5866 5864 5863 5862 5860 5858 5856 5854 5851 5848 5845 5842 5838 5834 5831 5827 5823 5819 5815 5811 5807 5803 5799 5796 5793 5790 5788 5785 5783 5781 5780 5779 5778 5777 5778 5778 5779 5781 5782 5784 5787
5866 5867 5867 5867 5867 5868 5867 5867 5866 5864 5863 5862 5860 5858 5856 5854 5852 5849 5846 5843 5839 5836 5832 5828 5825 5821 5817 5813 5809 5805 5801 5798 5794 5791 5788 5786 5783 5781 5779 5777 5776 5775 5774 5774 5774 5775 5776 5777 5779
5863 5865 5866 5867 5870 5869 5867 5865 5865 5864 5863 5861 5860 5858 5856 5854 5852 5849 5847 5844 5841 5837 5834 5830 5826 5823 5819 5815 5811 5807 5803 5799 5796 5793 5789 5786 5783 5781 5778 5776 5774 5772 5771 5770 5770 5770 5770 5771 5772
5862 5862 5864 5865 5866 5867 5866 5865 5864 5863 5862 5861 5860 5858 5856 5854 5852 5850 5847 5845 5842 5838 5835 5832 5828 5824 5821 5817 5813 5809 5805 5801 5798 5794 5790 5787 5784 5780 5777 5774 5772 5770 5768 5767 5766 5765 5765 5765 5765
5861 5861 5862 5863 5864 5866 5867 5864 5863 5862 5862 5861 5859 5858 5856 5854 5852 5850 5848 5845 5843 5840 5836 5833 5830 5826 5822 5819 5815 5811 5807 5803 5799 5795 5792 5788 5784 5780 5777 5773 5770 5768 5765 5763 5761 5760 5759 5758 5758
5860 5860 5861 5862 5863 5864 5864 5865 5863 5862 5861 5860 5859 5857 5856 5854 5852 5850 5848 5846 5843 5841 5837 5834 5831 5827 5824 5820 5816 5812 5808 5804 5800 5796 5792 5788 5784 5780 5776 5772 5769 5765 5762 5760 5757 5755 5753 5752 5750
5858 5859 5860 5861 5861 5861 5862 5865 5862 5861 5860 5859 5859 5857 5856 5854 5853 5851 5849 5846 5844 5841 5838 5835 5831 5828 5824 5820 5817 5813 5809 5805 5801 5797 5793 5788 5784 5780 5775 5771 5767 5763 5760 5756 5754 5751 5748 5746 5744